Home > Weather > Plovdiv > Past weeks

Flag for Bulgaria Past Weather in Plovdiv, Bulgaria — Yesterday and Last 2 Weeks

Now
68 °F

Mild.


Feels Like: 68 °F
Forecast: 63 / 90 °F
Wind: No wind

Location: Plovdiv Airport

Current Time: Jul 1, 2016 at 5:49:07 AM

Latest Report: Jul 1, 2016 at 5:00 AM


Visibility: N/A

Pressure: 30.01 "Hg

Humidity: 78%

Dew Point: 61 °F

Location of PlovdivLocation

Past Weather in Plovdiv — Graph

°F

Plovdiv Temperature Yesterday

Maximum temperature yesterday: 91 °F (at 3:30 PM)
Minimum temperature yesterday: 66 °F (at 3:00 AM)
Average temperature yesterday: 79 °F

High & Low Weather Summary for the Past Weeks

 TemperatureHumidityPressure
High97 °F (Jun 22, 4:30 PM)100% (Jun 20, 6:00 AM)30.18 "Hg (Jun 20, 6:00 AM)
Low59 °F (Jun 16, 6:00 AM)23% (Jun 16, 5:00 PM)29.77 "Hg (Jun 28, 5:30 PM)
Average79 °F59%29.99 "Hg
* Reported Jun 16 4:00 AM — Jul 1 4:30 AM, Plovdiv, Weather by CustomWeather, © 2016

Note: Actual official high and low records may vary slightly from our data, if they occured in-between our weather recording intervals... More about our weather records

Advertising

Plovdiv Weather History for the Previous 24 Hours

Scroll right to see more
 ConditionsComfort  
Time TempWeatherWind HumidityBarometerVisibility
4:30 AM
Fri, Jul 1
70 °FMild.3 mph78%30.01 "HgN/A
4:00 AM68 °FMild.3 mph78%30.01 "HgN/A
3:30 AM70 °FMild.5 mph73%30.01 "HgN/A
3:00 AM70 °FMild.6 mph73%30.01 "HgN/A
2:30 AM70 °FPassing clouds.7 mph73%30.01 "HgN/A
2:00 AM70 °FPassing clouds.9 mph73%30.01 "HgN/A
1:30 AM70 °FMild.6 mph73%29.98 "HgN/A
1:00 AM77 °FPassing clouds.5 mph57%29.98 "HgN/A
12:30 AM79 °FPassing clouds.8 mph54%29.98 "HgN/A
12:00 AM79 °FPassing clouds.9 mph54%29.98 "HgN/A
11:30 PM
Thu, Jun 30
77 °FWarm.8 mph57%29.98 "HgN/A
11:00 PM79 °FPassing clouds.8 mph54%29.98 "HgN/A
10:30 PM77 °FWarm.8 mph61%29.98 "HgN/A
10:00 PM77 °FWarm.7 mph61%29.98 "HgN/A
9:30 PM79 °FWarm.8 mph54%29.95 "HgN/A
9:00 PM82 °FWarm.8 mph48%29.95 "HgN/A
8:30 PM84 °FWarm.8 mph45%29.95 "HgN/A
8:00 PM88 °FWarm.10 mph40%29.95 "HgN/A
7:30 PM88 °FWarm.12 mph40%29.95 "HgN/A
7:00 PM90 °FHot.12 mph38%29.92 "HgN/A
6:30 PM90 °FHot.10 mph38%29.95 "HgN/A
6:00 PM91 °FHot.10 mph36%29.95 "HgN/A
5:30 PM90 °FHot.5 mph36%29.95 "HgN/A
5:00 PM90 °FHot.7 mph33%29.95 "HgN/A
4:30 PM91 °FHot.7 mph34%29.95 "HgN/A
4:00 PM90 °FHot.8 mph36%29.95 "HgN/A
3:30 PM91 °FHot.8 mph34%29.95 "HgN/A
3:00 PM90 °FHot.3 mph33%29.95 "HgN/A
2:30 PM90 °FHot.8 mph36%29.98 "HgN/A
2:00 PM88 °FPassing clouds.5 mph40%29.98 "HgN/A
1:30 PM88 °FPassing clouds.6 mph38%29.98 "HgN/A
1:00 PM86 °FWarm.6 mph43%29.98 "HgN/A
12:30 PM86 °FWarm.5 mph43%29.98 "HgN/A
12:00 PM84 °FWarm.5 mph45%30.01 "HgN/A
11:30 AM84 °FWarm.3 mph48%30.01 "HgN/A
11:00 AM81 °FWarm.5 mph54%30.01 "HgN/A
10:30 AM81 °FWarm.3 mph54%30.01 "HgN/A
10:00 AM77 °FWarm.7 mph57%30.01 "HgN/A
9:30 AM75 °FMild.9 mph65%30.01 "HgN/A
9:00 AM77 °FWarm.6 mph61%30.01 "HgN/A
8:30 AM75 °FPassing clouds.5 mph65%29.98 "HgN/A
8:00 AM75 °FPassing clouds.No wind61%29.98 "HgN/A
7:30 AM73 °FPassing clouds.3 mph65%29.98 "HgN/A
7:00 AM70 °FScattered clouds.5 mph73%29.98 "HgN/A
6:30 AM68 °FPassing clouds.2 mph78%29.98 "HgN/A
6:00 AM66 °FMild.2 mph83%29.98 "HgN/A
5:30 AM68 °FPassing clouds.3 mph78%29.98 "HgN/A
5:00 AM68 °FMild.5 mph78%29.95 "HgN/A
Weather by CustomWeather, © 2016

See weather overviewHow to use our weather pages